Weather History for Bryce Canyon, UT

Change the Weather History Date:

Friday, December 9, 2011

  Actual Average Record
Temperature  
Mean Temperature 22 °F -  
Max Temperature 43 °F 38 °F 55 °F (1977)
Min Temperature 1 °F 10 °F -18 °F (2013)
Degree Days  
Heating Degree Days 43    
Moisture  
Dew Point 9 °F    
Average Humidity 74    
Maximum Humidity 96    
Minimum Humidity 31    
Precipitation  
Precipitation 0.00 in - - ()
Sea Level Pressure  
Sea Level Pressure 30.37 in    
Wind  
Wind Speed 5 mph (West)    
Max Wind Speed 9 mph    
Max Gust Speed -    
Visibility 10 miles    
Events      
Averages and records for this station are not official NWS values.
T = Trace of Precipitation, MM = Missing Value Source: NWS Daily Summary

Daily Weather History Graph

Daily Weather History Graph

Search for Another Location

Airport:

Trip Planner

Search our weather history database for the weather conditions in past years. The results will help you decide how hot, cold, wet, or windy it might be!

Date:

Astronomy

Dec. 09, 2011 Rise Set
Actual Time 7:31 AM MST 5:09 PM MST
Civil Twilight 7:02 AM MST 5:38 PM MST
Nautical Twilight 6:30 AM MST 6:11 PM MST
Astronomical Twilight 5:58 AM MST 6:43 PM MST
Moon 4:36 PM MST (12/9) 6:42 AM MST (12/9)
Length of Visible Light 10h 36m
Length of Day
9h 37m
Waxing Gibbous, 99% of the Moon is Illuminated
Dec 9
Waxing Gibbous
Dec 10
Full
Dec 17
Last Quarter
Dec 24
New
Dec 31
First Quarter

Hourly Weather History & Observations

Time (MST) Temp. Windchill Dew Point Humidity Pressure Visibility Wind Dir Wind Speed Gust Speed Precip Events Conditions
12:53 AM 5.0 °F -5.6 °F 3.9 °F 95% 30.29 in 10.0 mi NW 5.8 mph - N/A   Clear
1:53 AM 3.9 °F -8.2 °F 3.0 °F 96% 30.29 in 10.0 mi West 6.9 mph - N/A   Clear
3:53 AM 3.0 °F -9.3 °F 1.9 °F 95% 30.31 in 10.0 mi West 6.9 mph - N/A   Clear
4:53 AM 3.0 °F -10.5 °F 1.0 °F 91% 30.33 in 10.0 mi West 8.1 mph - N/A   Clear
5:53 AM 1.0 °F -11.7 °F -0.9 °F 91% 30.35 in 10.0 mi West 6.9 mph - N/A   Clear
6:53 AM 3.0 °F -11.5 °F 1.0 °F 91% 30.39 in 10.0 mi West 9.2 mph - N/A   Clear
7:53 AM 3.9 °F -9.4 °F 1.0 °F 88% 30.42 in 10.0 mi West 8.1 mph - N/A   Clear
8:53 AM 14.0 °F - 10.9 °F 88% 30.43 in 10.0 mi Calm Calm - N/A   Clear
9:53 AM 25.0 °F 18.1 °F 18.0 °F 75% 30.38 in 10.0 mi NW 5.8 mph - N/A   Clear
10:53 AM 30.0 °F 24.1 °F 12.9 °F 49% 30.37 in 10.0 mi NE 5.8 mph - N/A   Clear
11:53 AM 34.0 °F 28.0 °F 10.9 °F 38% 30.35 in 10.0 mi NNE 6.9 mph - N/A   Clear
12:53 PM 37.9 °F - 12.0 °F 35% 30.31 in 10.0 mi Calm Calm - N/A   Clear
1:53 PM 39.9 °F 36.7 °F 12.9 °F 33% 30.30 in 10.0 mi NNE 4.6 mph - N/A   Clear
2:53 PM 43.0 °F - 14.0 °F 31% 30.29 in 10.0 mi Calm Calm - N/A   Clear
3:53 PM 42.1 °F - 14.0 °F 32% 30.29 in 10.0 mi Calm Calm - N/A   Clear
4:53 PM 33.1 °F 27.7 °F 15.1 °F 48% 30.36 in 10.0 mi SSE 5.8 mph - N/A   Clear
5:53 PM 21.0 °F - 14.0 °F 74% 30.45 in 10.0 mi Calm Calm - N/A   Clear
6:53 PM 14.0 °F 8.2 °F 12.0 °F 92% 30.50 in 10.0 mi WSW 3.5 mph - N/A   Clear
7:53 PM 17.1 °F 7.6 °F 12.9 °F 84% 30.49 in 10.0 mi West 6.9 mph - N/A   Clear
8:53 PM 10.9 °F 2.9 °F 10.0 °F 96% 30.48 in 10.0 mi SW 4.6 mph - N/A   Clear
9:53 PM 12.0 °F 2.7 °F 10.0 °F 92% 30.41 in 10.0 mi West 5.8 mph - N/A   Clear
10:53 PM 10.9 °F 1.4 °F 9.0 °F 92% 30.39 in 10.0 mi WSW 5.8 mph - N/A   Clear
11:53 PM 12.0 °F 4.1 °F 10.0 °F 92% 30.37 in 10.0 mi West 4.6 mph - N/A   Clear